Back to catalog

STARLINK-11285

AliveCommunicationsVLEO
NORAD 61578·PAYLOAD·🇺🇸 United States

Launched Oct 18, 2024 from Cape Canaveral Space Force Station

Loading…

Next Passes (next 24 hours)

TLE

FreshSource: CelesTrak SupGP

Epoch: Sep 15, 2026, 02:43 UTC

1 61578C 24187E   26258.11368056  .00031023  00000+0  25534-3 0  2580
2 61578  53.1571  82.2575 0001065  81.4603 302.0518 15.69713646    12

Track STARLINK-11285 in real time with AllMySat

Download on the App Store